Back to catalog

STARLINK-31417

AliveCommunicationsVLEO
NORAD 59216·PAYLOAD·🇺🇸 United States

Launched Mar 11, 2024 from Vandenberg Space Force Base

Loading…

Next Passes (next 24 hours)

TLE

FreshSource: CelesTrak SupGP

Epoch: Sep 15, 2026, 02:00 UTC

1 59216C 24046R   26258.08381944  .00059241  00000+0  17493-2 0  2583
2 59216  53.1585 354.7766 0001184  96.3199  83.7178 15.34378132    13

Track STARLINK-31417 in real time with AllMySat

Download on the App Store